Location: Unspecified
(0.0000°N, 0.0000°E)
Time: 07:20:09
(UTC+00:00)

Explorer 7 - All Passes

Search period start: 29 November 2014 00:00
Search period end: 09 December 2014 00:00
Orbit: 490 x 703 km, 50.3° (Epoch: 28 November)

Date Brightness Start Highest point End Pass type
(mag) Time Alt. Az. Time Alt. Az. Time Alt. Az.
29 Nov - 10:04:01 10° S 10:07:19 19° SE 10:10:28 10° E daylight
29 Nov - 11:44:17 10° WSW 11:48:03 27° NW 11:51:35 10° N daylight
29 Nov - 22:07:42 10° N 22:11:14 27° NE 22:15:00 10° ESE night (unlit)
29 Nov - 23:48:50 10° W 23:51:58 19° SW 23:55:15 10° S night (unlit)
30 Nov - 10:12:33 10° SSW 10:16:58 43° SE 10:21:04 10° NE daylight
30 Nov - 11:56:04 10° WNW 11:57:34 12° NW 11:59:02 10° NNW daylight
30 Nov - 22:16:37 10° NNW 22:20:45 66° NE 22:25:12 10° SE night (unlit)
01 Dec - 10:21:54 10° SW 10:26:31 77° NW 10:30:48 10° NNE daylight
01 Dec - 22:26:14 10° NW 22:30:17 49° SW 22:34:38 10° SSE night (unlit)
02 Dec - 08:52:05 10° S 08:55:14 18° SE 08:58:16 10° E daylight
02 Dec - 10:31:56 10° WSW 10:36:00 31° NW 10:39:51 10° N daylight
02 Dec - 20:56:00 10° N 20:59:13 22° NE 21:02:36 10° ESE night (unlit)
02 Dec - 22:36:40 10° W 22:39:53 21° SW 22:43:16 10° S night (unlit)
03 Dec - 09:00:26 10° SSW 09:04:51 38° SE 09:09:00 10° ENE daylight
03 Dec - 10:43:06 10° W 10:45:29 14° NW 10:47:48 10° NNW daylight
03 Dec - 21:04:43 10° NNW 21:08:40 55° NE 21:12:56 10° SE night (unlit)
04 Dec - 09:09:38 10° SW 09:14:23 89° NW 09:18:49 10° NE daylight
04 Dec - 21:14:11 10° NW 21:18:10 57° SW 21:22:27 10° SSE night (unlit)
05 Dec - 07:40:06 10° SSE 07:43:02 16° SE 07:45:52 10° E daylight
05 Dec - 09:19:29 10° WSW 09:23:51 37° NW 09:27:57 10° NNE daylight
05 Dec - 19:44:15 10° N 19:47:05 19° NE 19:50:02 10° E night (unlit)
05 Dec - 21:24:25 10° WNW 21:27:43 23° SW 21:31:11 10° S night (unlit)
06 Dec - 07:48:13 10° SSW 07:52:37 34° SE 07:56:46 10° ENE daylight
06 Dec - 09:30:17 10° W 09:33:17 17° NW 09:36:11 10° NNW daylight
06 Dec - 19:52:44 10° NNW 19:56:31 45° NE 20:00:33 10° SE night (unlit)
07 Dec - 07:57:16 10° SSW 08:02:07 79° SE 08:06:40 10° NE daylight
07 Dec - 20:02:02 10° NW 20:05:57 67° SW 20:10:09 10° SSE visible
08 Dec - 06:28:04 10° SSE 06:30:42 14° SE 06:33:16 10° E daylight
08 Dec - 08:06:57 10° SW 08:11:34 44° NW 08:15:54 10° NNE daylight
08 Dec - 18:32:29 10° NNE 18:34:52 16° NE 18:37:19 10° E visible
08 Dec - 20:12:06 10° WNW 20:15:27 26° SW 20:19:00 10° S visible
